Weather observations for the past three days for
Beverly, Beverly Municipal Airport
Metric (Imperial)
Date Time (edt) Wind (kph) Vis. (km) Weather Sky Cond. Temperature (ºC) Relative Humidity Wind Chill (°C) Heat Index (°C) Pressure Precipitation (cm)
Air Dwpt 6 hour altimeter (cm) sea level (mb) 1 hr 3 hr 6 hr
Max. Min.
21 12:53 NE 19 16.09 Fair CLR 23.9 16.7 64% 25 76.68 1021.6
21 11:53 NE 20 G 33 16.09 Fair CLR 24.4 17.2 64% 25 76.71 1021.9
21 10:53 N 22 G 39 16.09 A Few Clouds FEW020 25.6 20.6 74% 27 76.68 1021.9
21 09:53 NE 20 16.09 Fair CLR 26.1 21.1 74% 28 76.63 1021.2
21 08:53 N 11 16.09 Fair CLR 25.6 22.2 82% 27 76.63 1021.1
21 07:53 NW 9 16.09 Fair CLR 23.9 22.2 23.9 20 90% 23 76.66 1021.2
21 06:53 Calm 14.48 Fair CLR 21.7 21.7 100% 76.63 1020.9
21 05:53 Calm 16.09 Fair CLR 21.1 20 93% 76.63 1020.9
21 04:53 Calm 16.09 Fair CLR 20.6 19.4 93% 76.61 1020.7
21 03:53 Calm 16.09 Fair CLR 20.6 19.4 93% 76.61 1020.7
21 02:53 W 9 16.09 Fair CLR 21.1 20 93% 76.61 1020.7
21 01:53 SW 9 16.09 Fair CLR 21.1 20 30 21.1 93% 76.61 1020.8 1.4
21 00:53 SW 15 12.87 Mostly Cloudy BKN003 22.2 21.7 97% 76.63 1021.1
20 23:53 NW 6 11.27 Fair CLR 22.2 21.7 97% 76.66 1021.2
20 22:53 Calm 12.87 Light Rain FEW110 22.8 21.7 94% 76.71 1021.9 0.23 1.4
20 21:53 Calm 4.83 Thunderstorm in Vicinity Rain Fog/Mist OVC095 22.8 21.7 94% 76.81 1023.5 0.33
20 20:53 W 13 G 35 8.05 Thunderstorm in Vicinity Light Rain Fog/Mist SCT026 BKN055 OVC100 22.8 21.7 94% 76.78 1023.1 0.84
20 19:53 N 19 G 33 16.09 Partly Cloudy SCT045 30 22.8 35 30 65% 34 76.58 1020.3
20 18:53 W 13 16.09 Fair CLR 32.2 23.3 59% 37 76.56 1019.9
20 17:53 W 17 16.09 Partly Cloudy FEW002 SCT055 33.3 22.8 54% 38 76.53 1019.5
20 16:53 SW 20 16.09 Fair CLR 34.4 22.2 49% 39 76.5 1019.2
20 15:53 SW 15 G 31 16.09 Partly Cloudy FEW055 SCT080 34.4 22.2 49% 39 76.56 1019.8
20 14:53 SW 17 16.09 Mostly Cloudy SCT055 BKN070 BKN090 35 22.2 47% 40 76.61 1020.7
20 13:53 NW 11 16.09 Fair CLR 33.9 23.3 34.4 26.1 54% 40 76.66 1021.4
20 12:53 W 15 16.09 Fair CLR 33.3 22.8 54% 38 76.71 1022.0
20 11:53 NW 13 16.09 Fair CLR 32.2 22.8 58% 37 76.73 1022.5
20 10:53 W 13 16.09 Fair CLR 30.6 22.8 63% 35 76.76 1022.6
20 09:53 Vrbl 9 16.09 Fair CLR 29.4 22.2 65% 33 76.76 1022.7
20 08:53 W 9 16.09 Fair CLR 27.8 21.1 67% 30 76.76 1022.6
20 07:53 W 9 16.09 Fair CLR 26.1 19.4 26.1 23.3 67% 27 76.78 1022.9
20 06:53 SW 13 16.09 Fair CLR 24.4 18.3 69% 25 76.78 1023.1
20 05:53 SW 7 16.09 Fair CLR 23.3 18.3 74% 76.76 1022.6
20 04:53 SW 9 16.09 Fair CLR 23.9 19.4 76% 24 76.76 1022.5
20 03:53 SW 9 16.09 Fair CLR 23.9 20.6 82% 24 76.73 1022.4
20 02:53 SW 13 16.09 Fair CLR 24.4 21.1 82% 25 76.76 1022.6
20 01:53 SW 11 16.09 Fair CLR 25.6 21.7 30 25.6 79% 27 76.76 1022.6
20 00:53 SW 13 16.09 Fair CLR 25.6 21.7 79% 27 76.76 1022.8
19 23:53 SW 17 16.09 Fair CLR 26.1 22.2 79% 28 76.78 1023.0
19 22:53 SW 13 16.09 Fair CLR 26.7 22.8 79% 29 76.84 1023.6
19 21:53 SW 20 G 30 16.09 Fair CLR 28.3 22.8 72% 32 76.84 1023.6
19 20:53 SW 17 16.09 Fair CLR 28.9 22.8 70% 32 76.76 1022.8
19 19:53 SW 22 G 37 16.09 Fair CLR 30 23.3 34.4 30 67% 34 76.78 1023.0
19 18:53 SW 17 16.09 Fair CLR 31.1 23.3 63% 36 76.76 1022.8
19 17:53 W 19 16.09 Fair CLR 32.2 23.3 59% 37 76.73 1022.4
19 16:53 W 17 16.09 Fair CLR 33.3 22.8 54% 38 76.73 1022.3
19 15:53 W 11 16.09 Fair CLR 33.3 22.2 52% 38 76.78 1022.9
19 14:53 SW 17 16.09 A Few Clouds FEW049 33.3 22.8 54% 38 76.78 1022.9
19 13:53 SW 13 G 30 16.09 Fair CLR 33.3 23.3 33.9 23.9 56% 39 76.81 1023.3
19 12:53 W 15 16.09 Fair CLR 32.8 23.3 57% 38 76.84 1023.7
19 11:53 SW 13 16.09 Fair CLR 31.1 22.8 61% 35 76.89 1024.3
19 10:53 SW 13 16.09 Fair CLR 29.4 21.1 61% 32 76.89 1024.5
19 09:53 W 9 16.09 Fair CLR 27.8 20 63% 29 76.91 1024.6
19 08:53 SW 15 16.09 Fair CLR 26.1 18.3 62% 27 76.91 1024.8
19 07:53 SW 17 16.09 Fair CLR 23.9 16.7 24.4 22.2 64% 25 76.91 1024.8
19 06:53 SW 15 16.09 Fair CLR 22.8 16.1 66% 76.91 1024.6
19 05:53 SW 17 16.09 Fair CLR 22.2 16.1 68% 76.89 1024.3
19 04:53 SW 13 16.09 Fair CLR 22.8 16.7 69% 76.84 1023.7
19 03:53 S 15 16.09 Fair CLR 23.3 18.3 74% 76.81 1023.3
19 02:53 SW 9 16.09 Fair CLR 23.3 19.4 79% 76.78 1023.2
19 01:53 SW 13 16.09 Fair CLR 24.4 20 28.9 23.9 77% 25 76.78 1022.9
19 00:53 SW 15 16.09 Fair CLR 25 20.6 77% 26 76.78 1022.8
18 23:53 SW 13 16.09 Fair CLR 25.6 21.1 76% 27 76.76 1022.6
18 22:53 SW 19 16.09 Fair CLR 26.1 21.7 77% 28 76.73 1022.3
18 21:53 SW 15 16.09 Fair CLR 27.2 21.7 72% 29 76.73 1022.2
18 20:53 S 11 16.09 Fair CLR 27.8 21.7 69% 30 76.68 1021.6
18 19:53 S 13 16.09 Fair CLR 28.9 21.7 30.6 28.9 65% 32 76.63 1021.1
18 18:53 S 11 16.09 Fair CLR 29.4 21.7 63% 32 76.61 1020.6
18 17:53 SE 11 16.09 Fair CLR 30 22.2 63% 33 76.61 1020.6
18 16:53 SE 11 16.09 Fair CLR 30 21.7 61% 33 76.63 1021.0
18 15:53 SE 19 16.09 Fair CLR 30 21.7 61% 33 76.66 1021.3
18 14:53 SE 19 16.09 Fair CLR 30 22.2 63% 33 76.66 1021.3
18 13:53 SE 15 16.09 Fair CLR 30.6 21.1 31.1 22.2 57% 33 76.66 1021.5
Date Time (edt) Wind (kph) Vis. (km) Weather Sky Cond. Air Dwpt Max. Min. Relative Humidity Wind Chill (°C) Heat Index (°C) altimeter (cm) sea level (mb) 1 hr 3 hr 6 hr
6 hour
Temperature (ºC) Pressure Precipitation (cm)